Hamilton/John C. Munro Hamilton International Airport

Airport
ICAO code: 
CYHM
IATA Code: 
YHM
Summary
ICAO Region: 
NAM
Territory: 
Location: 
Hamilton, Ontario,
Serving: 
Hamilton
Elevation: 
780 ft
Coordinates: 
Aerial View: 
43° 10' 23.002" N, 79° 56' 6" W
Metar
Observation
CYHM 201128Z 05006KT 4SM BR FEW080 BKN240 11/11 A2965 RMK AC1CI7 AC TR SLP044 DENSITY ALT 800FT
Station
Hamilton Airport
Date/Time
2022-05-20 11:28:00
Wind direction
50°
Wind speed
06 kts
Lowest cloud amount
few clouds
Temperature
11°C
Dew point
11°C
Humidity
100%
Weather condition
mist

Description

John C. Munro Hamilton International Airport or Hamilton International, is an international airport in Hamilton, Ontario, Canada.

Climatology

Humid continental climate (Köppen climate classification Dfa) - characterized by four seasons: cold, windy, snowy winters, mild springs, hot, humid summers, and crisp and relatively short autumns. Precipitation reaches its lowest in January and February and peaks in summer and latter half of spring.

Runways

Designator Length Width Surface Rops
6/24 1829 46 ASP Yes/Yes
12/30 3048 61 ASP Yes/Yes
Airport map: 
Aerial View: 

Accidents and Serious Incidents at or in the vicinity of CYHM

SKYbrary Partners:

Safety knowledge contributed by: